FENGYUN 1C DEB

Satellite information

Favourite Embed

Satellite Type and Status

DEBRISIN ORBIT

Key statistics

Satellite FENGYUN 1C DEB at a glance.

Uptime

9555

Days in orbit

Revolutions

≈ 14.5

Per day

Orbit

SSO

Sun Synchronous Orbit

Inclination

97.4

Latest

Satellite identification and parameters

Extended collection of information and parameters for FENGYUN 1C DEB.

Object identification

Identified? True

Debris? True

Object name: FENGYUN 1C DEB

International designator: 1999-025TZ

Object number (NORAD): 30168

Object ID (CCSDS): 30168

Country: PEOPLES REPUBLIC OF CHINA (PRC)

Current information (Y/N): Y

RCS size: SMALL

Orbital parameters

Period: 99.326 minutes

Inclination: 97.3987 deg

SMA: 7104.547 km

Apoapsis: 799.304 km

Periapsis: 653.52 km

RAAN: 279.241 deg

Eccentricy: 0.0102599

Argument of periapsis: 292.8135 deg

Mean anomaly: 66.225 deg

Mean motion: 14.497669 rev/day

Mean motion (dot): 0.00003424 rev/day2

B* drag term: 0.00084029 1/REarth

Two-line elements (TLE)

Creation date: July 6, 2025, 10:46 p.m.

Reference frame: TEME

Reference center: EARTH

Epoch: July 6, 2025, 7 p.m. UTC

TLE line 0: 0 FENGYUN 1C DEB

TLE line 1: 1 30168U 99025TZ 25187.79172784 .00003424 00000-0 84029-3 0 9990

TLE line 2: 2 30168 97.3987 279.2410 0102599 292.8135 66.2250 14.49766900960163

Live tracking on map

Real-time ground track for satellite FENGYUN 1C DEB.

In-orbit conjunctions

A list of the most updated potential collisions computed for object FENGYUN 1C DEB.

Target Orbit TCA Probability of collision Miss distance Type
IRIDIUM 920 LEO 2024-12-31 23:24:43 0.0005348044 177.0 (m) PAYLOAD
CZ-6A DEB SSO 2024-11-16 11:53:34 0.0001266222 622.0 (m) DEBRIS
CZ-6A DEB LEO 2024-11-09 05:07:25 0.0001028075 189.0 (m) DEBRIS

Associated space launch

Chinese polar orbiting meteorological satellite

FENGYUN 1C DEB was lifted into orbit during the mission ‘Long March 4B | Feng Yun 1C’, on board a Long March 4B space rocket.

The launch took place on May 10, 1999, 1:33 a.m. from Launch Complex 7.

For more information about the launch, click the button.

Launch to space Long March 4B | Feng Yun 1C
Long March 4B | Feng Yun 1C

Agency: N/A

Status: Launch Successful

Launch date: May 10, 1999, 1:33 a.m. UTC

Rocket: Long March 4B

Launch pad: Launch Complex 7

Location: Taiyuan Satellite Launch Center, People's Republic of China

...

Latest news about this satellite

There are no fresh news available about this satellite. Check back as we update our databases every day.


Newsletter sign-up

Weekly statistics, charts and insights to help you stay on top of the space industry.